• Em Portugal
  • Lista de países
  • Para 7 dias
  • Temperatura da água
  • Mapas de satélite
  • Mapa do tempo
  • Widgets de tempo
  • user-avatar
    Iniciar Sessão

    Previsão horária em Malatya

    Hoje, 20 Outubro, Sexta-feira

    Tempo Temperatura Precipitação Vento Pressão Humidade
    00:00 +13°C° 0 mm 0 m/s 673 mmHg 40%
    01:00 +12°C° 0 mm 0 m/s 673 mmHg 41%
    02:00 +12°C° 0 mm 0 m/s 673 mmHg 42%
    03:00 +11°C° 0 mm 0 m/s 673 mmHg 42%
    04:00 +11°C° 0 mm 0 m/s 673 mmHg 43%
    05:00 +11°C° 0 mm 0 m/s 673 mmHg 44%
    06:00 +10°C° 0 mm 0 m/s 673 mmHg 44%
    07:00 +12°C° 0 mm 0 m/s 673 mmHg 39%
    08:00 +14°C° 0 mm 0 m/s 674 mmHg 35%
    09:00 +16°C° 0 mm 0 m/s 675 mmHg 29%
    10:00 +17°C° 0 mm 0 m/s 675 mmHg 27%
    11:00 +18°C° 0 mm 0 m/s 675 mmHg 25%
    12:00 +21°C° 0 mm 1 m/s 675 mmHg 22%
    13:00 +22°C° 0 mm 1 m/s 675 mmHg 21%
    14:00 +22°C° 0 mm 1 m/s 674 mmHg 20%
    15:00 +23°C° 0 mm 1 m/s 674 mmHg 19%
    16:00 +21°C° 0 mm 1 m/s 674 mmHg 22%
    17:00 +20°C° 0 mm 1 m/s 674 mmHg 24%
    18:00 +19°C° 0 mm 1 m/s 673 mmHg 27%
    19:00 +16°C° 0 mm 0 m/s 673 mmHg 28%
    20:00 +15°C° 0 mm 0 m/s 673 mmHg 30%
    21:00 +15°C° 0 mm 0 m/s 673 mmHg 32%
    22:00 +14°C° 0 mm 0 m/s 673 mmHg 32%
    23:00 +14°C° 0 mm 0 m/s 673 mmHg 33%

    Amanhã, 21 Outubro, Sábado

    Tempo Temperatura Precipitação Vento Pressão Humidade
    00:00 +13°C° 0 mm 0 m/s 673 mmHg 34%
    01:00 +13°C° 0 mm 0 m/s 673 mmHg 34%
    02:00 +12°C° 0 mm 0 m/s 672 mmHg 35%
    03:00 +12°C° 0 mm 0 m/s 672 mmHg 35%
    04:00 +11°C° 0 mm 0 m/s 672 mmHg 36%
    05:00 +11°C° 0 mm 0 m/s 672 mmHg 36%
    06:00 +11°C° 0 mm 0 m/s 672 mmHg 36%
    07:00 +13°C° 0 mm 0 m/s 672 mmHg 32%
    08:00 +14°C° 0 mm 0 m/s 673 mmHg 28%
    09:00 +16°C° 0 mm 0 m/s 674 mmHg 24%
    10:00 +17°C° 0 mm 0 m/s 673 mmHg 23%
    11:00 +20°C° 0 mm 1 m/s 673 mmHg 21%
    12:00 +21°C° 0 mm 1 m/s 673 mmHg 20%
    13:00 +22°C° 0 mm 1 m/s 673 mmHg 20%
    14:00 +22°C° 0 mm 1 m/s 673 mmHg 19%
    15:00 +23°C° 0 mm 1 m/s 672 mmHg 18%
    16:00 +21°C° 0 mm 1 m/s 672 mmHg 21%
    17:00 +20°C° 0 mm 1 m/s 671 mmHg 23%
    18:00 +17°C° 0 mm 0 m/s 671 mmHg 26%
    19:00 +16°C° 0 mm 0 m/s 671 mmHg 27%
    20:00 +15°C° 0 mm 0 m/s 671 mmHg 29%
    21:00 +15°C° 0 mm 0 m/s 671 mmHg 30%
    22:00 +14°C° 0 mm 0 m/s 671 mmHg 30%
    23:00 +14°C° 0 mm 0 m/s 671 mmHg 30%

    Depois de amanhã, 22 Outubro, Domingo

    Tempo Temperatura Precipitação Vento Pressão Humidade
    00:00 +14°C° 0 mm 1 m/s 671 mmHg 31%
    01:00 +14°C° 0 mm 1 m/s 670 mmHg 31%
    02:00 +13°C° 0 mm 1 m/s 670 mmHg 31%
    03:00 +13°C° 0 mm 1 m/s 670 mmHg 31%
    04:00 +12°C° 0 mm 1 m/s 670 mmHg 31%
    05:00 +12°C° 0 mm 1 m/s 670 mmHg 31%
    06:00 +12°C° 0 mm 1 m/s 669 mmHg 31%
    07:00 +13°C° 0 mm 1 m/s 670 mmHg 28%
    08:00 +15°C° 0 mm 1 m/s 671 mmHg 25%
    09:00 +18°C° 0 mm 1 m/s 671 mmHg 22%
    10:00 +19°C° 0 mm 1 m/s 671 mmHg 21%
    11:00 +20°C° 0 mm 1 m/s 671 mmHg 19%
    12:00 +21°C° 0 mm 1 m/s 671 mmHg 18%
    13:00 +22°C° 0 mm 1 m/s 671 mmHg 18%
    14:00 +22°C° 0 mm 1 m/s 671 mmHg 17%
    15:00 +22°C° 0 mm 1 m/s 670 mmHg 17%
    16:00 +21°C° 0 mm 1 m/s 670 mmHg 19%
    17:00 +20°C° 0 mm 1 m/s 670 mmHg 22%
    18:00 +19°C° 0 mm 1 m/s 669 mmHg 25%
    19:00 +18°C° 0 mm 1 m/s 669 mmHg 26%
    20:00 +16°C° 0 mm 1 m/s 670 mmHg 27%
    21:00 +16°C° 0 mm 1 m/s 670 mmHg 29%
    22:00 +15°C° 0 mm 1 m/s 670 mmHg 29%
    23:00 +15°C° 0 mm 1 m/s 670 mmHg 30%

    23 Outubro, Segunda-feira

    Tempo Temperatura Precipitação Vento Pressão Humidade
    00:00 +14°C° 0 mm 1 m/s 670 mmHg 31%
    01:00 +14°C° 0 mm 1 m/s 670 mmHg 32%
    02:00 +13°C° 0 mm 1 m/s 669 mmHg 33%
    03:00 +13°C° 0 mm 1 m/s 669 mmHg 35%
    04:00 +12°C° 0 mm 1 m/s 669 mmHg 36%
    05:00 +12°C° 0 mm 1 m/s 669 mmHg 37%
    06:00 +12°C° 0 mm 1 m/s 669 mmHg 39%
    07:00 +13°C° 0 mm 1 m/s 670 mmHg 35%
    08:00 +15°C° 0 mm 1 m/s 670 mmHg 32%
    09:00 +18°C° 0 mm 1 m/s 671 mmHg 28%
    10:00 +19°C° 0 mm 1 m/s 671 mmHg 26%
    11:00 +19°C° 0 mm 2 m/s 671 mmHg 23%
    12:00 +20°C° 0 mm 2 m/s 671 mmHg 21%
    13:00 +20°C° 0 mm 2 m/s 671 mmHg 20%
    14:00 +21°C° 0 mm 3 m/s 670 mmHg 19%
    15:00 +21°C° 0 mm 3 m/s 670 mmHg 18%
    16:00 +20°C° 0 mm 3 m/s 670 mmHg 20%
    17:00 +19°C° 0 mm 2 m/s 670 mmHg 22%
    18:00 +18°C° 0 mm 2 m/s 669 mmHg 24%
    19:00 +17°C° 0 mm 2 m/s 670 mmHg 25%
    20:00 +16°C° 0 mm 2 m/s 670 mmHg 26%
    21:00 +15°C° 0 mm 1 m/s 670 mmHg 27%
    22:00 +15°C° 0 mm 1 m/s 670 mmHg 28%
    23:00 +14°C° 0 mm 1 m/s 670 mmHg 29%

    24 Outubro, Terça-feira

    Tempo Temperatura Precipitação Vento Pressão Humidade
    00:00 +14°C° 0 mm 1 m/s 670 mmHg 30%
    01:00 +14°C° 0 mm 1 m/s 669 mmHg 31%
    02:00 +13°C° 0 mm 1 m/s 669 mmHg 33%
    03:00 +13°C° 0 mm 1 m/s 669 mmHg 35%
    04:00 +12°C° 0 mm 1 m/s 669 mmHg 37%
    05:00 +12°C° 0 mm 1 m/s 669 mmHg 39%
    06:00 +12°C° 0 mm 1 m/s 669 mmHg 41%
    07:00 +13°C° 0 mm 1 m/s 670 mmHg 39%
    08:00 +15°C° 0 mm 2 m/s 671 mmHg 36%
    09:00 +16°C° 0 mm 2 m/s 672 mmHg 34%
    10:00 +18°C° 0 mm 2 m/s 672 mmHg 33%
    11:00 +19°C° 0 mm 3 m/s 672 mmHg 32%
    12:00 +21°C° 0 mm 4 m/s 672 mmHg 30%
    13:00 +21°C° 0 mm 4 m/s 671 mmHg 29%
    14:00 +21°C° 0 mm 4 m/s 671 mmHg 27%
    15:00 +22°C° 0 mm 4 m/s 671 mmHg 25%
    16:00 +21°C° 0 mm 3 m/s 671 mmHg 27%
    17:00 +20°C° 0 mm 3 m/s 671 mmHg 28%
    18:00 +19°C° 0 mm 2 m/s 670 mmHg 30%
    19:00 +18°C° 0 mm 2 m/s 671 mmHg 30%
    20:00 +18°C° 0 mm 2 m/s 671 mmHg 30%
    21:00 +17°C° 0 mm 2 m/s 671 mmHg 31%
    22:00 +17°C° 0 mm 2 m/s 671 mmHg 31%
    23:00 +17°C° 0 mm 2 m/s 671 mmHg 31%

    25 Outubro, Quarta-feira

    Tempo Temperatura Precipitação Vento Pressão Humidade
    00:00 +16°C° 0 mm 2 m/s 671 mmHg 32%
    01:00 +16°C° 0 mm 2 m/s 671 mmHg 33%
    02:00 +15°C° 0 mm 2 m/s 671 mmHg 34%
    03:00 +15°C° 0 mm 2 m/s 671 mmHg 35%
    04:00 +14°C° 0 mm 2 m/s 671 mmHg 37%
    05:00 +14°C° 0 mm 2 m/s 671 mmHg 38%
    06:00 +13°C° 0 mm 2 m/s 671 mmHg 39%
    07:00 +15°C° 0 mm 2 m/s 672 mmHg 36%
    08:00 +16°C° 0 mm 2 m/s 672 mmHg 33%
    09:00 +17°C° 0 mm 2 m/s 673 mmHg 30%
    10:00 +19°C° 0 mm 3 m/s 673 mmHg 29%
    11:00 +20°C° 0 mm 3 m/s 673 mmHg 27%
    12:00 +22°C° 0 mm 4 m/s 673 mmHg 26%
    13:00 +22°C° 0 mm 4 m/s 673 mmHg 25%
    14:00 +23°C° 0 mm 4 m/s 673 mmHg 24%
    15:00 +23°C° 0 mm 4 m/s 672 mmHg 24%
    16:00 +22°C° 0 mm 4 m/s 672 mmHg 26%
    17:00 +20°C° 0 mm 3 m/s 672 mmHg 28%
    18:00 +19°C° 0 mm 2 m/s 672 mmHg 31%
    19:00 +18°C° 0 mm 2 m/s 672 mmHg 33%
    20:00 +17°C° 0 mm 2 m/s 672 mmHg 35%
    21:00 +18°C° 0 mm 1 m/s 673 mmHg 36%
    22:00 +16°C° 0 mm 1 m/s 673 mmHg 38%
    23:00 +16°C° 0 mm 1 m/s 673 mmHg 39%
    Mostrar mais